Previsão horária em Abraveses

Hoje, 18 Maio, Terça-feira

Tempo Temperatura Precipitação Vento Pressão Humidade
00:00 +11°C° 0 mm 1 m/s 723 mmHg 70%
01:00 +11°C° 0 mm 1 m/s 723 mmHg 69%
02:00 +11°C° 0 mm 1 m/s 723 mmHg 69%
03:00 +11°C° 0 mm 1 m/s 723 mmHg 71%
04:00 +11°C° 0 mm 1 m/s 723 mmHg 73%
05:00 +12°C° 0 mm 1 m/s 723 mmHg 75%
06:00 +13°C° 0 mm 1 m/s 723 mmHg 76%
07:00 +14°C° 0 mm 1 m/s 723 mmHg 77%
08:00 +15°C° 0 mm 2 m/s 724 mmHg 78%
09:00 +15°C° 0.1 mm 2 m/s 724 mmHg 81%
10:00 +15°C° 0.1 mm 1 m/s 724 mmHg 85%
11:00 +15°C° 0.1 mm 1 m/s 724 mmHg 88%
12:00 +17°C° 0 mm 2 m/s 724 mmHg 76%
13:00 +19°C° 0 mm 3 m/s 724 mmHg 65%
14:00 +21°C° 0 mm 3 m/s 724 mmHg 53%
15:00 +20°C° 0 mm 3 m/s 724 mmHg 53%
16:00 +19°C° 0 mm 3 m/s 724 mmHg 52%
17:00 +18°C° 0 mm 3 m/s 724 mmHg 52%
18:00 +16°C° 0 mm 3 m/s 724 mmHg 63%
19:00 +13°C° 0 mm 2 m/s 725 mmHg 74%
20:00 +11°C° 0 mm 1 m/s 725 mmHg 86%
21:00 +11°C° 0 mm 1 m/s 725 mmHg 87%
22:00 +10°C° 0 mm 1 m/s 725 mmHg 88%
23:00 +10°C° 0 mm 1 m/s 725 mmHg 89%

Amanhã, 19 Maio, Quarta-feira

Tempo Temperatura Precipitação Vento Pressão Humidade
00:00 +10°C° 0 mm 1 m/s 725 mmHg 87%
01:00 +9°C° 0 mm 1 m/s 725 mmHg 85%
02:00 +9°C° 0 mm 1 m/s 724 mmHg 84%
03:00 +9°C° 0 mm 1 m/s 725 mmHg 83%
04:00 +10°C° 0 mm 1 m/s 725 mmHg 82%
05:00 +9°C° 0 mm 2 m/s 725 mmHg 81%
06:00 +12°C° 0 mm 2 m/s 725 mmHg 68%
07:00 +15°C° 0 mm 2 m/s 726 mmHg 55%
08:00 +18°C° 0 mm 2 m/s 726 mmHg 43%
09:00 +19°C° 0 mm 2 m/s 726 mmHg 38%
10:00 +21°C° 0 mm 2 m/s 726 mmHg 34%
11:00 +24°C° 0 mm 2 m/s 726 mmHg 30%
12:00 +24°C° 0 mm 2 m/s 726 mmHg 29%
13:00 +25°C° 0 mm 2 m/s 725 mmHg 29%
14:00 +25°C° 0 mm 2 m/s 725 mmHg 28%
15:00 +25°C° 0 mm 2 m/s 725 mmHg 33%
16:00 +24°C° 0 mm 2 m/s 725 mmHg 38%
17:00 +23°C° 0 mm 2 m/s 725 mmHg 43%
18:00 +19°C° 0 mm 2 m/s 725 mmHg 49%
19:00 +18°C° 0 mm 1 m/s 725 mmHg 55%
20:00 +15°C° 0 mm 1 m/s 725 mmHg 62%
21:00 +14°C° 0 mm 1 m/s 725 mmHg 61%
22:00 +14°C° 0 mm 2 m/s 725 mmHg 61%
23:00 +14°C° 0 mm 2 m/s 725 mmHg 60%

Depois de amanhã, 20 Maio, Quinta-feira

Tempo Temperatura Precipitação Vento Pressão Humidade
00:00 +14°C° 0 mm 2 m/s 725 mmHg 60%
01:00 +13°C° 0 mm 2 m/s 724 mmHg 59%
02:00 +13°C° 0 mm 2 m/s 724 mmHg 58%
03:00 +13°C° 0 mm 2 m/s 724 mmHg 60%
04:00 +13°C° 0 mm 2 m/s 724 mmHg 62%
05:00 +13°C° 0 mm 2 m/s 724 mmHg 64%
06:00 +14°C° 0 mm 3 m/s 725 mmHg 57%
07:00 +18°C° 0 mm 3 m/s 725 mmHg 51%
08:00 +20°C° 0 mm 3 m/s 725 mmHg 44%
09:00 +22°C° 0 mm 3 m/s 725 mmHg 40%
10:00 +25°C° 0 mm 3 m/s 725 mmHg 37%
11:00 +27°C° 0 mm 2 m/s 725 mmHg 34%
12:00 +28°C° 0 mm 2 m/s 725 mmHg 33%
13:00 +28°C° 0 mm 2 m/s 724 mmHg 32%
14:00 +29°C° 0 mm 1 m/s 724 mmHg 31%
15:00 +28°C° 0 mm 1 m/s 724 mmHg 37%
16:00 +27°C° 0 mm 1 m/s 724 mmHg 42%
17:00 +26°C° 0 mm 1 m/s 723 mmHg 48%
18:00 +23°C° 0 mm 1 m/s 723 mmHg 55%
19:00 +21°C° 0 mm 1 m/s 723 mmHg 62%
20:00 +18°C° 0 mm 1 m/s 723 mmHg 69%
21:00 +18°C° 0 mm 1 m/s 723 mmHg 69%
22:00 +16°C° 0 mm 1 m/s 723 mmHg 70%
23:00 +15°C° 0 mm 1 m/s 723 mmHg 70%

21 Maio, Sexta-feira

Tempo Temperatura Precipitação Vento Pressão Humidade
00:00 +15°C° 0 mm 1 m/s 722 mmHg 72%
01:00 +14°C° 0 mm 1 m/s 722 mmHg 74%
02:00 +13°C° 0 mm 1 m/s 722 mmHg 75%
03:00 +13°C° 0 mm 1 m/s 722 mmHg 76%
04:00 +13°C° 0 mm 1 m/s 722 mmHg 76%
05:00 +13°C° 0 mm 1 m/s 722 mmHg 76%
06:00 +16°C° 0 mm 1 m/s 723 mmHg 69%
07:00 +19°C° 0 mm 1 m/s 723 mmHg 61%
08:00 +20°C° 0 mm 2 m/s 723 mmHg 53%
09:00 +21°C° 0 mm 2 m/s 723 mmHg 50%
10:00 +22°C° 0 mm 3 m/s 723 mmHg 47%
11:00 +23°C° 0 mm 4 m/s 723 mmHg 43%
12:00 +23°C° 0 mm 4 m/s 723 mmHg 40%
13:00 +23°C° 0 mm 5 m/s 723 mmHg 36%
14:00 +23°C° 0 mm 5 m/s 723 mmHg 33%
15:00 +21°C° 0 mm 4 m/s 723 mmHg 35%
16:00 +20°C° 0 mm 4 m/s 723 mmHg 37%
17:00 +18°C° 0 mm 3 m/s 723 mmHg 40%
18:00 +16°C° 0 mm 3 m/s 723 mmHg 49%
19:00 +13°C° 0 mm 2 m/s 723 mmHg 59%
20:00 +11°C° 0 mm 1 m/s 723 mmHg 68%
21:00 +10°C° 0 mm 1 m/s 723 mmHg 71%
22:00 +9°C° 0 mm 1 m/s 723 mmHg 73%
23:00 +9°C° 0 mm 1 m/s 723 mmHg 76%

22 Maio, Sábado

Tempo Temperatura Precipitação Vento Pressão Humidade
00:00 +8°C° 0 mm 1 m/s 723 mmHg 75%
01:00 +8°C° 0 mm 1 m/s 723 mmHg 74%
02:00 +8°C° 0 mm 1 m/s 723 mmHg 73%
03:00 +9°C° 0 mm 1 m/s 723 mmHg 73%
04:00 +9°C° 0 mm 1 m/s 723 mmHg 73%
05:00 +9°C° 0 mm 1 m/s 723 mmHg 72%
06:00 +11°C° 0 mm 1 m/s 723 mmHg 62%
07:00 +13°C° 0 mm 2 m/s 723 mmHg 53%
08:00 +16°C° 0 mm 2 m/s 724 mmHg 43%
09:00 +17°C° 0 mm 2 m/s 724 mmHg 38%
10:00 +19°C° 0 mm 2 m/s 724 mmHg 34%
11:00 +20°C° 0 mm 3 m/s 724 mmHg 29%
12:00 +20°C° 0 mm 3 m/s 723 mmHg 31%
13:00 +20°C° 0 mm 4 m/s 723 mmHg 33%
14:00 +19°C° 0 mm 4 m/s 723 mmHg 35%
15:00 +18°C° 0 mm 4 m/s 723 mmHg 41%
16:00 +17°C° 0 mm 3 m/s 723 mmHg 47%
17:00 +16°C° 0 mm 3 m/s 723 mmHg 53%
18:00 +14°C° 0 mm 2 m/s 723 mmHg 60%
19:00 +13°C° 0 mm 2 m/s 724 mmHg 67%
20:00 +11°C° 0 mm 1 m/s 724 mmHg 74%
21:00 +10°C° 0 mm 1 m/s 724 mmHg 76%
22:00 +10°C° 0 mm 1 m/s 724 mmHg 77%
23:00 +9°C° 0 mm 1 m/s 724 mmHg 79%

23 Maio, Domingo

Tempo Temperatura Precipitação Vento Pressão Humidade
00:00 +9°C° 0 mm 1 m/s 724 mmHg 80%
01:00 +8°C° 0 mm 1 m/s 724 mmHg 80%
02:00 +7°C° 0 mm 2 m/s 724 mmHg 81%
03:00 +7°C° 0 mm 2 m/s 724 mmHg 81%
04:00 +7°C° 0 mm 2 m/s 724 mmHg 80%
05:00 +7°C° 0 mm 2 m/s 724 mmHg 79%
06:00 +9°C° 0 mm 2 m/s 724 mmHg 67%
07:00 +12°C° 0 mm 3 m/s 724 mmHg 54%
08:00 +16°C° 0 mm 3 m/s 724 mmHg 41%
09:00 +17°C° 0 mm 3 m/s 724 mmHg 37%
10:00 +19°C° 0 mm 3 m/s 724 mmHg 33%
11:00 +21°C° 0 mm 3 m/s 724 mmHg 28%
12:00 +21°C° 0 mm 3 m/s 724 mmHg 27%
13:00 +22°C° 0 mm 3 m/s 724 mmHg 26%
14:00 +24°C° 0 mm 3 m/s 723 mmHg 25%
15:00 +23°C° 0 mm 2 m/s 723 mmHg 28%
16:00 +23°C° 0 mm 2 m/s 723 mmHg 32%
17:00 +21°C° 0 mm 2 m/s 722 mmHg 35%
18:00 +19°C° 0 mm 2 m/s 722 mmHg 41%
19:00 +16°C° 0 mm 2 m/s 722 mmHg 46%
20:00 +14°C° 0 mm 1 m/s 722 mmHg 51%
21:00 +13°C° 0 mm 2 m/s 722 mmHg 51%
22:00 +13°C° 0 mm 2 m/s 722 mmHg 50%
23:00 +13°C° 0 mm 2 m/s 722 mmHg 49%
Mostrar mais

Necessitamos do seu Consentimento

A Meteoprog e os seus Fornecedores de Serviços podem armazenar e aceder a dados pessoais como cookies, identificadores do dispositivo ou outras tecnologias semelhantes existentes no seu dispositivo e processar estes dados para personalizar conteúdos e anúncios, assim como funcionalidades nas redes sociais e análise de tráfego.

  • Armazenar e/ou aceder a informações no seu dispositivo

    Os cookies, identificadores do dispositivo ou outras informações podem ser armazenados ou acedidos no seu dispositivo, para os fins acima indicados.

  • Anúncios e conteúdos personalizados, medição de anúncios e conteúdos, dados sobre o público-alvo e desenvolvimento de produtos

    Os anúncios e os conteúdos podem ser personalizados com base num perfil. Podem ser adicionados dados adicionais para uma maior personalização dos anúncios e dos conteúdos. A eficácia dos anúncios e dos conteúdos pode ser medida. Podem ser obtidas informações sobre o público que visualizou os anúncios e os conteúdos. Estes dados podem ser usados para desenvolver ou melhorar sistemas, softwares ou a experiência do utilizador.

Ao clicar em "Eu concordo”, permitirá o uso de cookies, identificadores do dispositivo e web beacons mencionados ou outras tecnologias semelhantes. As configurações do navegador do seu dispositivo podem ser alteradas.

Para certos fins, podem ser invocados interesses legítimos ao invés de consentimento. Pode ler mais informação sobre este assunto na nossa Política de Privacidade e Cookies.